Weather History for Buffalo, WY

Change the Weather History Date:

Thursday, March 28, 2013

  Actual Average Record
Temperature  
Mean Temperature 46 °F 38 °F  
Max Temperature 59 °F 49 °F 67 °F (2012)
Min Temperature 33 °F 26 °F 15 °F (1999)
Degree Days  
Heating Degree Days 19 27  
Month to date heating degree days 875 870  
Since 1 July heating degree days 5824 6110  
Cooling Degree Days 0 0  
Month to date cooling degree days 0 0  
Year to date cooling degree days 0 0  
Moisture  
Dew Point 21 °F    
Average Humidity 38    
Maximum Humidity 52    
Minimum Humidity 23    
Precipitation  
Precipitation 0.00 in 0.05 in 0.72 in (2007)
Month to date precipitation 0.08 0.80  
Year to date precipitation 0.69 1.57  
Sea Level Pressure  
Sea Level Pressure 30.03 in    
Wind  
Wind Speed 6 mph (West)    
Max Wind Speed 12 mph    
Max Gust Speed 16 mph    
Visibility 10 miles    
Events      
T = Trace of Precipitation, MM = Missing Value Source: NWS Daily Summary

Daily Weather History Graph

Daily Weather History Graph

Search for Another Location

Airport:

Trip Planner

Search our weather history database for the weather conditions in past years. The results will help you decide how hot, cold, wet, or windy it might be!

Date:

Astronomy

Mar. 28, 2013 Rise Set
Actual Time 6:54 AM MDT 7:29 PM MDT
Civil Twilight 6:25 AM MDT 7:58 PM MDT
Nautical Twilight 5:51 AM MDT 8:33 PM MDT
Astronomical Twilight 5:15 AM MDT 9:09 PM MDT
Moon 9:30 PM MDT (3/28) 7:20 AM MDT (3/28)
Length of Visible Light 13h 33m
Length of Day
12h 34m
Full, 98% of the Moon is Illuminated
Mar 28
Full
Apr 2
Last Quarter
Apr 10
New
Apr 18
First Quarter
Apr 25
Full

Hourly Weather History & Observations

Time (MDT) Temp. Windchill Dew Point Humidity Pressure Visibility Wind Dir Wind Speed Gust Speed Precip Events Conditions
12:53 AM 36.0 °F 29.6 °F 19.9 °F 52% 30.00 in 10.0 mi WSW 8.1 mph - N/A   Clear
1:53 AM 37.9 °F 32.1 °F 19.9 °F 48% 29.99 in 10.0 mi West 8.1 mph - N/A   Clear
2:53 AM 37.0 °F 30.4 °F 19.9 °F 50% 29.98 in 10.0 mi WSW 9.2 mph - N/A   Clear
3:53 AM 36.0 °F 31.1 °F 19.9 °F 52% 29.99 in 10.0 mi WSW 5.8 mph - N/A   Clear
4:53 AM 37.0 °F 31.0 °F 21.0 °F 52% 29.99 in 10.0 mi West 8.1 mph - N/A   Clear
5:53 AM 36.0 °F 32.1 °F 19.0 °F 50% 30.01 in 10.0 mi West 4.6 mph - N/A   Clear
6:53 AM 36.0 °F 31.1 °F 19.9 °F 52% 30.03 in 10.0 mi West 5.8 mph - N/A   Clear
7:53 AM 41.0 °F 35.8 °F 21.9 °F 47% 30.06 in 10.0 mi West 8.1 mph - N/A   Clear
8:53 AM 48.9 °F - 21.9 °F 35% 30.06 in 10.0 mi NW 3.5 mph - N/A   Clear
9:53 AM 52.0 °F - 21.9 °F 31% 30.06 in 10.0 mi NNE 4.6 mph - N/A   Clear
10:53 AM 54.0 °F - 23.0 °F 30% 30.06 in 10.0 mi Variable 4.6 mph - N/A   Clear
11:53 AM 55.0 °F - 21.9 °F 28% 30.06 in 10.0 mi NNE 5.8 mph - N/A   Clear
12:53 PM 55.0 °F - 21.9 °F 28% 30.05 in 10.0 mi Calm Calm - N/A   Scattered Clouds
1:53 PM 57.0 °F - 23.0 °F 27% 30.02 in 10.0 mi WSW 5.8 mph - N/A   Partly Cloudy
2:53 PM 55.9 °F - 21.9 °F 27% 30.01 in 10.0 mi SSE 5.8 mph - N/A   Mostly Cloudy
3:53 PM 55.9 °F - 21.0 °F 26% 30.01 in 10.0 mi NNW 5.8 mph - N/A   Overcast
4:53 PM 57.0 °F - 19.9 °F 24% 30.00 in 10.0 mi NNE 5.8 mph - N/A   Scattered Clouds
5:53 PM 57.9 °F - 19.9 °F 23% 30.01 in 10.0 mi NE 4.6 mph - N/A   Clear
6:53 PM 55.0 °F - 21.9 °F 28% 30.03 in 10.0 mi Calm Calm - N/A   Clear
7:53 PM 46.9 °F - 24.1 °F 41% 30.05 in 10.0 mi WSW 5.8 mph - N/A   Clear
8:53 PM 42.1 °F 37.1 °F 24.1 °F 49% 30.05 in 10.0 mi WSW 8.1 mph - N/A   Clear
9:53 PM 43.0 °F 38.2 °F 23.0 °F 45% 30.04 in 10.0 mi WSW 8.1 mph - N/A   Clear
10:53 PM 43.0 °F 39.5 °F 21.9 °F 43% 30.03 in 10.0 mi SW 5.8 mph - N/A   Clear
11:53 PM 44.1 °F 40.1 °F 21.9 °F 42% 30.02 in 10.0 mi WSW 6.9 mph - N/A   Clear